Location: Wharf Road Observatory
(44.7802°N, 65.6070°W)
Time: 17:56:10
(UTC-03:00)

ISS - Visible Passes

Search period start: 22 September 2023 00:00
Search period end: 02 October 2023 00:00
Orbit: 414 x 422 km, 51.6° (Epoch: 22 September)

Date Brightness Start Highest point End Pass type
(mag) Time Alt. Az. Time Alt. Az. Time Alt. Az.
22 Sep -2.0 21:17:40 10° NW 21:20:31 25° N 21:20:39 25° N visible
23 Sep -1.9 20:29:34 10° NW 20:32:22 24° N 20:34:26 14° NE visible
23 Sep -0.7 22:06:30 10° NW 22:07:21 16° NW 22:07:21 16° NW visible
24 Sep -2.3 21:18:31 10° NW 21:21:07 31° N 21:21:07 31° N visible
25 Sep -2.3 20:30:28 10° NW 20:33:25 27° N 20:34:52 20° NE visible
25 Sep -0.6 22:07:09 10° WNW 22:07:47 15° WNW 22:07:47 15° WNW visible
26 Sep -2.1 19:42:20 10° NW 19:45:10 25° N 19:48:00 10° ENE visible
26 Sep -2.6 21:19:06 10° NW 21:21:31 40° NNW 21:21:31 40° NNW visible
27 Sep -3.0 20:31:01 10° NW 20:34:13 41° NNE 20:35:15 31° ENE visible
27 Sep -0.4 22:07:50 10° WNW 22:08:10 12° WNW 22:08:10 12° WNW visible
28 Sep -2.6 19:42:54 10° NW 19:45:58 32° NNE 19:49:00 10° E visible
28 Sep -2.4 21:19:36 10° WNW 21:21:55 40° W 21:21:55 40° W visible
29 Sep -3.9 20:31:24 10° WNW 20:34:45 82° NNE 20:35:41 44° ESE visible
30 Sep -3.5 19:43:12 10° NW 19:46:30 54° NNE 19:49:30 12° ESE visible
30 Sep -1.7 21:20:17 10° W 21:22:26 23° WSW 21:22:26 23° WSW visible
01 Oct -2.7 20:31:47 10° WNW 20:34:57 40° SW 20:36:18 26° SSE visible
